Tracking 18987 objects as of 26-Feb-2018
HD Live streaming from Space Station
objects crossing your sky now

SL-12 R/B(2)

Track SL-12 R/B(2) now!


NORAD ID: 37140
Int'l Code: 2010-041D
Perigee: 19,030.5 km
Apogee: 19,187.5 km
Inclination: 64.5 °
Period: 674.6 minutes
Semi major axis: 25479 km
RCS: 0.5114 m2 (medium)
Launch date: September 2, 2010
Source: Commonwealth of Independent States (former USSR) (CIS)
Launch site: TYURATAM MISSILE AND SPACE COMPLEX (TTMTR)

Note: This is a ROCKET BODY
aabbcc
Your satellite tracking list
Your tracking list is empty




NASA's NSSDC Master Catalog

Two Line Element Set (TLE):
1 37140U 10041D   18054.25239375  .00000017  00000-0  00000+0 0  9992
2 37140  64.5412 294.9041 0030804 189.0172  27.6793  2.13454066 58290
Source of the keplerian elements: AFSPC